SAUDICOMSAT 4

Last updated on Fri Dec 29 2023 00:03:02 GMT+0000 (Coordinated Universal Time)

1 31127U 07012L 23361.83888407 .00001154 00000+0 23436-3 0 9996 2 31127 98.2766 308.5980 0065915 195.7453 164.1699 14.61749563889419
UTC large
Height (km)
Speed (km/s)
/
Latitude / Longitude
Inclination (degrees)
Orbital Period (minutes)
Azimuth
Elevation
Range (km)
Doppler Factor

Next 0 passes for location: London (51.5072 / 0.1276)

Sorry there are no passes over London.
SAUDICOMSAT 4